Eelde, Netherlands

7:50 AM CEST on October 18, 2017 (GMT +0200)
Eelde

Weather History for EHGG - November, 2012

Change the Weather History Date:

Wednesday, November 21, 2012

  Actual Average Record
Temperature  
Mean Temperature 42 °F -  
Max Temperature 48 °F 43 °F 56 °F (2016)
Min Temperature 35 °F 33 °F 23 °F (1998)
Degree Days  
Heating Degree Days 24    
Moisture  
Dew Point 39 °F    
Average Humidity 90    
Maximum Humidity 100    
Minimum Humidity 80    
Precipitation  
Precipitation 0.00 in 0.10 in - ()
Sea Level Pressure  
Sea Level Pressure 29.89 in    
Wind  
Wind Speed 8 mph ()    
Max Wind Speed 23 mph    
Max Gust Speed 34 mph    
Visibility 6.0 miles    
Events Rain    
Averages and records for this station are not official NWS values.
T = Trace of Precipitation, MM = Missing Value Source: Averaged Metar Reports

Daily Weather History Graph

Daily Weather History Graph

Search for Another Location

Airport or City:

Trip Planner

Search our weather history database for the weather conditions in past years. The results will help you decide how hot, cold, wet, or windy it might be!

Date:

Astronomy

Nov. 21, 2012 Rise Set
Actual Time 8:09 AM CET 4:29 PM CET
Civil Twilight 7:29 AM CET 5:09 PM CET
Nautical Twilight 6:46 AM CET 5:52 PM CET
Astronomical Twilight 6:05 AM CET 6:33 PM CET
Moon 1:27 PM CET (11/21) 12:17 AM CET (11/21)
Length of Visible Light 9h 39m
Length of Day
8h 20m
First Quarter, 59% of the Moon is Illuminated
Nov 21
First Quarter
Nov 28
Full
Dec 6
Last Quarter
Dec 13
New
Dec 20
First Quarter

Hourly Weather History & Observations

Time (CET) Temp. Windchill Dew Point Humidity Pressure Visibility Wind Dir Wind Speed Gust Speed Precip Events Conditions
12:25 AM 44.6 °F 40.2 °F 41.0 °F 87% 29.98 in 6.2 mi SSE 8.1 mph - N/A   Unknown
12:55 AM 42.8 °F 38.6 °F 39.2 °F 87% 29.98 in 6.2 mi SSE 6.9 mph - N/A   Unknown
1:00 AM 42 °F - 40 °F 88% 29.99 in 10 mi SSE 6.7 mph - -   Partly Cloudy
1:25 AM 42.8 °F 38.6 °F 39.2 °F 87% 29.98 in 6.2 mi SSE 6.9 mph - N/A   Unknown
1:55 AM 41.0 °F 35.8 °F 39.2 °F 93% 29.98 in 6.2 mi South 8.1 mph - N/A   Unknown
2:25 AM 41.0 °F 35.8 °F 39.2 °F 93% 29.98 in 6.2 mi SSE 8.1 mph - N/A   Unknown
2:55 AM 41.0 °F 35.8 °F 39.2 °F 93% 29.98 in 6.2 mi South 8.1 mph - N/A   Unknown
3:25 AM 41.0 °F 36.4 °F 39.2 °F 93% 29.98 in 6.2 mi SSE 6.9 mph - N/A   Unknown
3:55 AM 39.2 °F 35.9 °F 37.4 °F 93% 29.98 in 6.2 mi SE 4.6 mph - N/A   Unknown
4:00 AM 40 °F - 38 °F 88% 29.97 in 7 mi SE 6.7 mph - -   Overcast
4:25 AM 39.2 °F 35.0 °F 37.4 °F 93% 29.95 in 6.2 mi SE 5.8 mph - N/A   Unknown
4:55 AM 39.2 °F 34.2 °F 37.4 °F 93% 29.95 in 6.2 mi SE 6.9 mph - N/A   Unknown
5:25 AM 39.2 °F 33.6 °F 37.4 °F 93% 29.95 in 6.2 mi SE 8.1 mph - N/A   Unknown
5:55 AM 37.4 °F 33.8 °F 35.6 °F 93% 29.95 in 6.2 mi SE 4.6 mph - N/A   Unknown
6:25 AM 37.4 °F 32.1 °F 35.6 °F 93% 29.92 in 6.2 mi SE 6.9 mph - N/A   Unknown
6:55 AM 37.4 °F 32.8 °F 35.6 °F 93% 29.92 in 6.2 mi SE 5.8 mph - N/A   Unknown
7:00 AM 37 °F - 36 °F 92% 29.95 in 7 mi SE 6.7 mph - -   Partly Cloudy
7:25 AM 37.4 °F 32.8 °F 35.6 °F 93% 29.92 in 6.2 mi SE 5.8 mph - N/A   Unknown
7:55 AM 35.6 °F 29.9 °F 35.6 °F 100% 29.92 in 5.6 mi ESE 6.9 mph - N/A   Unknown
8:25 AM 35.6 °F 28.0 °F 33.8 °F 93% 29.92 in 3.7 mi ESE 10.4 mph - N/A   Overcast
8:55 AM 35.6 °F 28.6 °F 35.6 °F 100% 29.92 in - SE 9.2 mph - N/A   Overcast
9:25 AM 35.6 °F 29.9 °F 35.6 °F 100% 29.92 in 1.5 mi SE 6.9 mph - N/A   Mostly Cloudy
9:55 AM 37.4 °F 31.4 °F 35.6 °F 93% 29.92 in - SE 8.1 mph - N/A   Overcast
10:00 AM 37 °F - 36 °F 95% 29.92 in 3 mi SE 8.9 mph - -   Mist
10:25 AM 37.4 °F 30.8 °F 37.4 °F 100% 29.89 in - SE 9.2 mph - N/A   Overcast
10:55 AM 37.4 °F 30.3 °F 37.4 °F 100% 29.89 in 3.1 mi SSE 10.4 mph - N/A   Overcast
11:25 AM 39.2 °F 31.6 °F 37.4 °F 93% 29.89 in 3.7 mi SSE 12.7 mph - N/A   Overcast
11:55 AM 39.2 °F 32.0 °F 37.4 °F 93% 29.86 in 3.7 mi SSE 11.5 mph - N/A   Overcast
12:25 PM 39.2 °F 33.0 °F 37.4 °F 93% 29.86 in 3.7 mi SSE 9.2 mph - N/A   Overcast
12:55 PM 41.0 °F 35.2 °F 39.2 °F 93% 29.86 in 4.3 mi SE 9.2 mph - N/A   Overcast
1:00 PM 41 °F - 38 °F 87% 29.86 in 5 mi SSE 11.2 mph - -   Mist
1:25 PM 41.0 °F 34.7 °F 39.2 °F 93% 29.86 in 6.2 mi SSE 10.4 mph - N/A   Overcast
1:55 PM 42.8 °F 37.0 °F 39.2 °F 87% 29.83 in 6.2 mi SSE 10.4 mph - N/A   Overcast
2:25 PM 42.8 °F 38.0 °F 39.2 °F 87% 29.83 in 6.2 mi SSE 8.1 mph - N/A   Partly Cloudy
2:55 PM 42.8 °F 37.5 °F 39.2 °F 87% 29.83 in 6.2 mi SSE 9.2 mph - N/A   Unknown
3:25 PM 42.8 °F 37.5 °F 37.4 °F 81% 29.83 in 6.2 mi SSE 9.2 mph - N/A   Unknown
3:55 PM 42.8 °F 37.0 °F 37.4 °F 81% 29.83 in 6.2 mi SSE 10.4 mph - N/A   Unknown
4:00 PM 42 °F - 38 °F 80% 29.84 in 12 mi SSE 8.9 mph - -   Scattered Clouds
4:25 PM 41.0 °F 35.2 °F 37.4 °F 87% 29.83 in 6.2 mi SSE 9.2 mph - N/A   Unknown
4:55 PM 41.0 °F 34.7 °F 37.4 °F 87% 29.83 in 6.2 mi SSE 10.4 mph - N/A   Unknown
5:25 PM 41.0 °F 35.2 °F 37.4 °F 87% 29.80 in 6.2 mi South 9.2 mph - N/A   Unknown
5:55 PM 42.8 °F 36.2 °F 39.2 °F 87% 29.83 in 6.2 mi South 12.7 mph - N/A   Overcast
6:25 PM 42.8 °F 36.6 °F 39.2 °F 87% 29.83 in 6.2 mi South 11.5 mph 23.0 mph N/A   Overcast
6:55 PM 44.6 °F 38.4 °F 39.2 °F 81% 29.83 in 6.2 mi South 12.7 mph - N/A   Overcast
7:00 PM 44 °F - 40 °F 80% 29.84 in 12 mi South 13.4 mph - -   Partly Cloudy
7:25 PM 44.6 °F 38.1 °F 41.0 °F 87% 29.83 in 6.2 mi South 13.8 mph - N/A   Mostly Cloudy
7:55 PM 44.6 °F 38.1 °F 41.0 °F 87% 29.83 in 6.2 mi South 13.8 mph - N/A   Mostly Cloudy
8:25 PM 44.6 °F 38.1 °F 42.8 °F 93% 29.83 in 6.2 mi South 13.8 mph - N/A   Overcast
8:55 PM 46.4 °F 40.7 °F 42.8 °F 87% 29.83 in 6.2 mi South 12.7 mph - N/A   Overcast
9:25 PM 46.4 °F 40.1 °F 42.8 °F 87% 29.80 in 6.2 mi South 15.0 mph - N/A   Overcast
9:55 PM 48.2 °F - 42.8 °F 82% 29.80 in 6.2 mi South 16.1 mph - N/A   Mostly Cloudy
10:25 PM 48.2 °F - 44.6 °F 87% 29.80 in 6.2 mi South 17.3 mph - N/A   Overcast
10:55 PM 48.2 °F - 44.6 °F 87% 29.80 in 6.2 mi SSW 18.4 mph - N/A   Overcast
11:25 PM 48.2 °F - 44.6 °F 87% 29.80 in 5.0 mi SSW 23.0 mph 34.5 mph N/A   Drizzle
11:55 PM 48.2 °F - 46.4 °F 93% 29.80 in 5.0 mi SSW 23.0 mph - N/A Rain Light Rain